Temp
2 2 2 2 1 1 1 1 0 -0 -1 -2 -2 -2 -2 -2 -2 -2 -2 -2 -2 -2 -2 -2 -2 -3 -3 -3 -3 -4 -5 -6 -6 -6 -6 -7 -6 -5 -5 -4 -5 -5 -4
2 1 1 1 1 1 1 -0 -1 -2 -2 -2 -2 -2 -2 -3 -3 -3 -3 -3 -3 -3 -3 -3 -3 -2 -3 -3 -4 -4 -4 -5 -5 -5 -5 -6 -6 -6 -5 -6 -6 -5 -5
2 1 1 0 1 1 0 -1 -1 -2 -2 -2 -3 -3 -3 -3 -3 -3 -3 -3 -3 -3 -4 -4 -3 -3 -3 -3 -4 -4 -5 -6 -5 -6 -6 -7 -7 -7 -7 -7 -6 -6 -6
1 1 0 0 1 0 -0 -1 -2 -2 -3 -3 -3 -3 -3 -4 -4 -4 -4 -4 -4 -4 -4 -5 -4 -4 -4 -4 -4 -4 -5 -6 -7 -6 -6 -7 -7 -7 -8 -8 -7 -7 -7
0 -0 -0 -0 0 -0 -1 -2 -2 -3 -3 -3 -4 -4 -4 -4 -4 -4 -5 -5 -4 -4 -5 -5 -4 -4 -4 -4 -5 -5 -5 -7 -7 -8 -7 -7 -7 -7 -9 -9 -9 -9 -8
-0 -1 -0 -0 -0 -1 -2 -2 -3 -3 -4 -4 -4 -4 -4 -4 -4 -4 -5 -5 -5 -5 -5 -5 -5 -5 -5 -5 -6 -6 -6 -7 -8 -9 -8 -8 -8 -8 -9 -9 -10 -10 -10
-1 -1 -1 -1 -1 -2 -3 -3 -4 -4 -5 -5 -5 -5 -4 -4 -5 -5 -5 -5 -5 -5 -5 -6 -6 -6 -6 -6 -6 -7 -8 -9 -9 -9 -10 -10 -9 -9 -10 -11 -10 -11 -10
-2 -3 -2 -2 -3 -3 -4 -4 -4 -5 -5 -5 -5 -5 -5 -5 -5 -5 -5 -5 -5 -6 -6 -6 -6 -6 -7 -7 -8 -9 -10 -10 -10 -10 -11 -11 -11 -11 -11 -11 -11 -12 -12
-5 -3 -3 -3 -4 -4 -4 -5 -5 -5 -5 -5 -5 -5 -5 -5 -5 -5 -5 -5 -6 -7 -7 -7 -8 -8 -8 -9 -9 -9 -10 -11 -11 -11 -11 -12 -12 -12 -12 -12 -12 -13 -12
-5 -5 -4 -5 -5 -5 -5 -5 -6 -6 -6 -6 -6 -6 -6 -6 -6 -6 -6 -6 -7 -8 -8 -9 -9 -9 -10 -10 -10 -11 -10 -12 -12 -12 -12 -12 -13 -13 -13 -14 -14 -14 -14
-5 -5 -5 -6 -6 -6 -6 -6 -6 -6 -6 -6 -6 -6 -6 -6 -6 -7 -7 -7 -8 -9 -9 -10 -11 -11 -11 -12 -12 -12 -12 -12 -12 -13 -13 -13 -13 -14 -14 -14 -15 -15 -15
-5 -6 -6 -6 -6 -6 -7 -7 -7 -7 -7 -7 -7 -7 -7 -7 -7 -7 -8 -8 -9 -9 -10 -11 -11 -12 -12 -13 -13 -13 -13 -13 -13 -13 -14 -14 -14 -15 -15 -15 -16 -16 -16
-6 -6 -6 -7 -7 -7 -7 -7 -7 -7 -7 -7 -8 -8 -8 -8 -8 -8 -9 -9 -10 -10 -10 -11 -12 -12 -13 -13 -14 -14 -14 -14 -14 -15 -15 -15 -15 -15 -15 -15 -15 -16 -16
-6 -6 -7 -7 -7 -8 -8 -8 -8 -8 -8 -8 -8 -8 -8 -8 -9 -9 -10 -10 -10 -11 -11 -11 -12 -13 -13 -14 -14 -14 -15 -15 -15 -16 -15 -15 -15 -16 -16 -17 -17 -16 -16
-7 -7 -8 -8 -8 -8 -8 -8 -8 -9 -9 -9 -9 -9 -9 -9 -10 -10 -10 -10 -10 -11 -11 -11 -12 -12 -13 -14 -14 -15 -15 -16 -16 -16 -16 -16 -16 -17 -17 -16 -17 -17 -17
-8 -8 -8 -8 -8 -9 -9 -9 -9 -9 -9 -9 -9 -9 -10 -10 -10 -10 -10 -10 -10 -11 -11 -11 -12 -13 -13 -14 -14 -15 -15 -16 -16 -16 -16 -16 -17 -17 -17 -17 -17 -17 -17
-9 -9 -9 -10 -10 -10 -9 -9 -10 -10 -10 -10 -10 -10 -10 -10 -10 -10 -10 -11 -11 -11 -11 -12 -12 -13 -14 -14 -15 -15 -16 -16 -16 -16 -17 -17 -17 -17 -17 -17 -17 -17 -17
-10 -10 -10 -10 -10 -10 -10 -10 -10 -10 -10 -10 -10 -10 -11 -11 -11 -11 -11 -11 -11 -12 -12 -12 -13 -13 -14 -15 -15 -16 -16 -16 -17 -17 -17 -17 -18 -18 -18 -18 -18 -18 -18
-11 -11 -11 -11 -11 -10 -10 -10 -10 -10 -10 -10 -11 -11 -11 -11 -11 -11 -11 -12 -12 -12 -12 -13 -13 -14 -14 -15 -16 -16 -16 -17 -17 -18 -18 -18 -18 -18 -18 -18 -18 -18 -18
-11 -11 -11 -11 -11 -11 -10 -11 -11 -10 -11 -11 -11 -11 -11 -11 -11 -12 -12 -12 -12 -13 -13 -13 -14 -14 -15 -15 -16 -16 -17 -17 -17 -18 -18 -18 -18 -18 -18 -18 -18 -18 -19
-11 -11 -11 -11 -11 -11 -10 -11 -11 -11 -11 -11 -11 -12 -12 -12 -12 -12 -12 -12 -12 -13 -13 -14 -14 -15 -15 -16 -16 -16 -17 -17 -18 -18 -18 -18 -19 -19 -19 -19 -19 -20 -20
-10 -10 -10 -10 -10 -11 -11 -11 -11 -11 -11 -11 -12 -12 -12 -12 -12 -12 -12 -12 -12 -13 -13 -13 -14 -15 -15 -16 -16 -17 -17 -17 -18 -18 -18 -19 -19 -19 -19 -19 -19 -20 -20
-10 -10 -10 -10 -10 -11 -11 -11 -11 -11 -11 -12 -12 -12 -12 -12 -12 -12 -12 -12 -13 -13 -13 -14 -14 -15 -15 -16 -16 -17 -17 -17 -18 -18 -18 -19 -19 -19 -19 -19 -20 -20 -20
-9 -9 -10 -10 -11 -11 -11 -11 -11 -12 -12 -12 -12 -12 -12 -12 -12 -12 -12 -13 -13 -13 -13 -14 -14 -15 -15 -16 -16 -16 -17 -17 -18 -18 -18 -19 -19 -19 -19 -19 -19 -20 -19
-9 -9 -10 -10 -11 -11 -11 -11 -12 -12 -12 -12 -12 -12 -12 -12 -12 -12 -13 -13 -13 -13 -14 -14 -14 -15 -15 -16 -16 -17 -17 -17 -18 -18 -18 -19 -19 -19 -19 -19 -19 -19 -20
-9 -10 -10 -10 -11 -11 -11 -11 -12 -12 -12 -12 -12 -12 -12 -12 -12 -13 -13 -13 -13 -14 -14 -14 -15 -15 -15 -16 -16 -17 -17 -17 -18 -18 -18 -19 -19 -19 -19 -19 -19 -19 -19
Height
3105 3106 3106 3105 3105 3105 3103 3102 3101 3100 3098 3097 3096 3095 3094 3093 3091 3090 3089 3087 3084 3085 3081 3078 3075 3074 3071 3070 3069 3068 3066 3064 3063 3061 3059 3062 3061 3062 3062 3065 3066 3067 3067
3099 3100 3100 3100 3099 3098 3097 3095 3095 3094 3092 3092 3090 3089 3087 3085 3084 3082 3081 3079 3077 3076 3074 3071 3068 3066 3065 3063 3061 3060 3059 3059 3057 3056 3055 3053 3053 3055 3054 3055 3056 3057 3060
3095 3094 3093 3093 3091 3091 3090 3089 3088 3089 3086 3085 3084 3082 3080 3078 3077 3076 3074 3071 3070 3067 3065 3063 3059 3057 3056 3055 3053 3052 3051 3051 3049 3049 3047 3046 3044 3045 3048 3049 3047 3047 3051
3088 3088 3086 3086 3085 3084 3082 3082 3082 3080 3079 3077 3076 3075 3074 3072 3069 3068 3066 3062 3061 3059 3058 3055 3049 3050 3047 3045 3045 3043 3042 3042 3041 3039 3038 3038 3037 3037 3039 3040 3039 3039 3042
3080 3080 3079 3078 3078 3076 3075 3074 3074 3073 3072 3069 3068 3066 3064 3061 3060 3059 3057 3053 3050 3048 3048 3045 3042 3040 3038 3037 3035 3034 3033 3034 3033 3032 3029 3029 3028 3029 3031 3031 3031 3032 3032
3073 3073 3071 3071 3069 3068 3067 3066 3066 3066 3064 3062 3060 3058 3055 3053 3052 3049 3045 3042 3040 3039 3037 3037 3033 3030 3029 3027 3025 3024 3023 3022 3023 3025 3021 3020 3019 3020 3022 3023 3023 3025 3025
3064 3064 3063 3062 3061 3060 3059 3058 3057 3057 3056 3054 3052 3049 3047 3045 3041 3037 3035 3034 3031 3030 3028 3027 3024 3021 3019 3017 3016 3014 3014 3014 3014 3014 3017 3012 3011 3011 3014 3013 3014 3016 3017
3054 3055 3055 3053 3052 3051 3051 3051 3050 3049 3047 3045 3042 3040 3037 3035 3032 3030 3028 3025 3023 3021 3019 3017 3014 3011 3010 3008 3005 3005 3005 3005 3004 3004 3004 3006 3004 3003 3004 3005 3006 3007 3006
3048 3048 3049 3047 3046 3044 3044 3043 3041 3039 3037 3035 3033 3031 3028 3026 3023 3021 3019 3016 3015 3012 3009 3007 3004 3001 2999 2997 2995 2995 2996 2996 2995 2994 2994 2994 2994 2994 2996 2997 2998 2998 2997
3043 3044 3042 3041 3039 3038 3035 3033 3031 3030 3029 3027 3024 3022 3019 3016 3014 3012 3010 3007 3006 3004 3001 2998 2996 2993 2990 2987 2985 2984 2982 2984 2983 2983 2983 2984 2984 2984 2985 2988 2989 2989 2991
3034 3035 3035 3034 3032 3029 3027 3026 3023 3021 3020 3018 3016 3013 3011 3008 3005 3003 3001 2999 2997 2995 2992 2990 2986 2983 2981 2979 2976 2974 2973 2972 2972 2972 2973 2974 2974 2975 2978 2980 2982 2983 2986
3027 3027 3026 3025 3023 3021 3019 3017 3014 3013 3011 3008 3006 3004 3002 3000 2998 2996 2993 2991 2988 2986 2984 2982 2978 2975 2973 2970 2967 2966 2965 2964 2963 2963 2964 2965 2966 2969 2971 2974 2977 2979 2981
3019 3019 3018 3017 3016 3014 3011 3009 3007 3004 3002 2999 2998 2997 2994 2993 2991 2988 2986 2984 2981 2979 2976 2974 2971 2969 2966 2964 2962 2960 2959 2959 2959 2958 2958 2960 2961 2963 2965 2968 2969 2972 2975
3011 3011 3010 3009 3008 3006 3005 3002 2999 2996 2993 2992 2990 2989 2988 2985 2983 2982 2980 2978 2976 2974 2971 2969 2967 2965 2963 2961 2959 2958 2957 2956 2955 2956 2956 2957 2958 2960 2962 2964 2967 2969 2972
3005 3003 3002 3001 3000 2999 2997 2995 2991 2988 2986 2984 2982 2981 2980 2978 2977 2976 2975 2974 2972 2971 2969 2967 2963 2962 2960 2959 2958 2957 2955 2955 2955 2955 2957 2957 2958 2958 2960 2962 2964 2966 2968
2996 2995 2994 2993 2991 2990 2988 2985 2983 2981 2980 2977 2976 2975 2974 2973 2973 2972 2972 2971 2970 2968 2967 2965 2962 2959 2959 2958 2957 2956 2955 2955 2955 2955 2955 2956 2957 2958 2960 2961 2963 2965 2968
2987 2986 2985 2982 2982 2981 2979 2977 2975 2974 2973 2972 2970 2970 2970 2970 2970 2970 2969 2969 2967 2966 2964 2962 2960 2958 2957 2956 2955 2954 2954 2954 2954 2954 2954 2955 2957 2958 2959 2960 2961 2963 2966
2977 2977 2977 2975 2974 2972 2970 2970 2969 2967 2968 2967 2966 2966 2966 2967 2968 2968 2967 2966 2965 2963 2961 2960 2958 2956 2955 2955 2954 2954 2954 2954 2954 2954 2955 2955 2956 2957 2958 2960 2961 2963 2965
2969 2968 2968 2967 2966 2964 2963 2963 2963 2962 2963 2962 2962 2963 2964 2965 2965 2965 2964 2963 2961 2960 2959 2957 2956 2955 2954 2954 2953 2953 2953 2953 2953 2954 2954 2955 2956 2957 2958 2959 2960 2962 2963
2964 2963 2961 2960 2958 2958 2958 2958 2958 2958 2958 2959 2960 2961 2962 2963 2962 2961 2960 2960 2959 2958 2956 2955 2954 2953 2952 2952 2952 2951 2951 2951 2952 2952 2952 2953 2953 2954 2955 2956 2957 2958 2959
2958 2956 2955 2954 2953 2953 2953 2954 2955 2955 2955 2957 2958 2959 2960 2960 2959 2958 2958 2957 2956 2955 2953 2952 2951 2950 2950 2950 2949 2949 2949 2949 2950 2950 2951 2951 2952 2952 2953 2954 2955 2956 2956
2952 2951 2950 2950 2950 2949 2950 2951 2951 2952 2954 2955 2956 2957 2957 2957 2957 2956 2956 2955 2954 2953 2951 2950 2949 2948 2948 2947 2947 2947 2947 2947 2947 2947 2948 2949 2949 2950 2950 2951 2952 2952 2953
2947 2946 2946 2946 2946 2947 2948 2949 2949 2951 2952 2954 2954 2954 2953 2954 2954 2954 2954 2953 2951 2950 2949 2948 2947 2947 2946 2945 2945 2945 2945 2945 2945 2945 2945 2946 2946 2946 2947 2948 2949 2949 2950
2942 2941 2941 2942 2943 2945 2946 2947 2948 2949 2951 2951 2951 2951 2951 2951 2952 2952 2951 2950 2949 2948 2947 2946 2946 2945 2944 2944 2943 2943 2943 2943 2943 2943 2943 2944 2944 2944 2945 2945 2945 2945 2946
2938 2938 2939 2940 2941 2942 2944 2945 2946 2947 2948 2948 2949 2949 2949 2949 2949 2949 2949 2948 2947 2946 2945 2945 2944 2944 2943 2943 2942 2942 2941 2941 2941 2941 2941 2941 2941 2942 2942 2942 2942 2943 2942
2935 2936 2937 2938 2939 2940 2941 2943 2944 2945 2945 2945 2946 2947 2947 2947 2947 2947 2946 2946 2945 2944 2944 2943 2943 2942 2942 2941 2941 2940 2940 2939 2939 2939 2939 2939 2939 2939 2939 2939 2939 2939 2939
Wind_Speed
16 18 18 18 22 23 25 25 24 24 23 23 24 24 23 25 27 27 27 29 32 31 33 30 28 27 25 24 22 22 22 26 27 29 35 31 37 34 33 29 30 31 34
20 22 21 23 26 27 26 26 25 25 26 26 25 27 27 29 31 32 31 31 33 33 35 33 30 28 27 27 26 24 23 22 27 28 29 32 33 31 32 31 30 33 33
23 25 26 26 26 26 28 28 29 27 29 29 30 30 33 33 34 35 34 34 36 36 36 34 32 31 30 29 29 28 27 23 26 25 27 31 33 31 27 28 33 34 31
25 26 29 29 26 27 29 30 29 30 30 32 34 35 34 36 38 38 39 37 39 40 36 34 35 31 31 32 31 31 31 26 26 28 29 30 33 32 29 29 30 33 31
28 30 31 31 28 28 30 29 30 31 32 34 33 36 39 41 38 34 35 37 39 39 34 35 33 33 33 33 34 33 33 29 27 28 33 34 36 33 28 28 28 29 33
30 34 35 31 29 31 31 30 32 32 33 33 35 37 34 37 37 36 36 38 38 36 35 35 36 35 35 35 35 34 35 34 32 27 34 36 37 36 32 31 30 28 32
33 36 32 29 30 30 29 29 30 31 31 33 35 35 36 36 35 35 35 35 35 35 36 37 37 37 37 36 35 36 34 33 33 34 29 36 37 37 34 34 33 33 32
29 29 27 27 28 27 27 28 30 31 32 33 32 31 32 31 31 32 33 33 34 35 36 37 38 38 37 34 35 35 34 33 34 35 35 33 36 36 34 34 34 34 36
24 26 30 28 28 27 29 30 31 32 30 29 30 32 31 31 32 34 34 35 35 36 36 36 38 37 37 35 36 36 34 33 35 35 36 35 36 35 33 33 32 33 36
25 29 29 26 27 29 30 29 28 28 29 29 30 30 30 30 31 33 33 33 35 34 34 34 34 34 35 35 36 36 38 31 31 32 32 32 32 34 32 29 30 32 33
24 26 29 32 31 28 28 29 30 30 30 29 30 30 31 30 30 31 31 32 32 32 31 30 32 32 33 32 32 32 32 30 29 27 28 28 30 31 31 29 29 32 31
27 29 26 27 29 29 29 29 30 30 29 29 30 31 31 30 29 30 30 30 30 30 29 27 28 29 29 28 27 26 25 24 25 25 23 23 25 26 26 27 29 27 25
23 24 25 26 27 28 29 30 31 30 29 29 28 28 29 29 29 28 27 26 26 26 25 22 22 22 22 20 18 18 17 16 16 14 13 14 16 19 21 25 26 23 18
27 28 29 30 33 31 30 32 32 30 28 27 26 26 27 26 24 23 21 21 20 18 16 15 14 15 14 12 13 11 10 11 11 10 9 9 13 14 15 16 17 17 18
33 31 31 31 34 32 32 35 32 27 25 24 24 24 23 21 19 17 15 13 12 12 13 13 10 12 12 10 9 7 7 6 4 6 8 8 7 8 9 11 12 12 11
35 36 36 35 36 35 34 34 26 25 24 22 21 20 19 15 12 10 10 10 11 11 11 12 11 8 9 9 9 9 7 5 5 5 5 4 4 5 5 7 9 11 13
38 38 37 39 40 33 33 30 25 25 23 21 19 17 13 10 8 8 9 10 11 12 12 12 11 9 9 10 10 8 7 7 6 5 6 7 6 6 5 4 2 1 1
35 37 35 30 31 29 30 25 21 21 20 19 16 12 9 8 8 9 10 11 12 13 13 13 12 11 9 8 8 7 5 4 3 3 2 2 1 0 0 2 5 6 6
31 32 30 29 29 24 23 23 19 19 18 15 12 10 9 9 10 10 10 11 12 12 12 11 11 11 10 9 8 7 6 5 4 3 3 3 4 5 6 7 8 8 9
23 26 29 30 25 21 19 17 17 16 14 12 10 10 9 9 10 10 10 10 11 11 11 10 10 10 10 9 8 7 6 7 7 7 7 7 7 7 9 9 11 11 11
22 25 23 20 18 16 16 15 14 13 11 10 10 10 9 9 8 9 9 10 11 11 12 11 11 10 10 9 9 9 7 7 8 8 8 8 10 10 10 10 9 10 12
18 17 16 14 15 14 13 13 11 10 10 10 10 10 8 7 7 8 9 9 10 10 10 10 9 9 9 9 8 9 9 8 8 8 8 8 10 10 10 10 12 12 11
15 16 15 15 13 12 12 11 10 10 11 11 10 8 7 7 7 8 8 8 9 9 9 10 9 8 8 7 7 7 7 8 8 9 9 10 10 9 9 9 10 11 12
17 16 13 11 11 12 11 11 11 11 11 10 9 8 7 7 8 7 7 8 8 9 9 9 9 8 7 7 7 7 6 7 7 7 7 8 9 9 10 10 10 11 11
12 11 10 11 12 12 12 12 12 12 11 9 8 8 8 8 8 7 7 8 8 9 8 8 8 8 8 7 7 6 7 6 6 7 7 7 7 8 9 9 10 10 11
10 11 11 12 12 12 12 13 12 12 10 9 9 9 9 8 8 8 8 8 8 8 8 8 8 9 9 8 8 8 8 8 8 7 8 8 8 8 9 10 11 12 12
Wind_Direction
265 276 278 273 282 286 292 290 288 291 294 289 291 294 295 297 301 302 306 307 306 300 294 293 293 293 294 294 292 289 282 280 279 277 283 280 282 286 280 280 273 270 268
269 275 275 281 293 293 288 286 286 285 287 292 289 287 289 293 297 300 305 304 300 301 292 287 286 287 290 292 293 289 282 278 277 280 284 283 282 284 288 288 280 269 267
272 276 285 288 291 288 284 280 280 280 280 282 283 284 286 289 292 296 298 298 300 297 291 287 284 284 289 292 293 290 286 279 278 278 275 276 280 283 283 280 277 278 272
269 273 283 290 287 286 281 279 277 273 275 278 280 283 286 289 290 295 293 289 292 290 287 284 281 288 287 289 290 290 288 285 282 282 281 281 282 284 283 278 277 279 278
259 270 281 286 283 279 277 276 273 275 275 277 280 283 288 289 295 302 294 291 289 286 282 278 282 283 283 286 287 286 282 280 279 278 281 281 283 285 283 279 275 273 273
259 272 280 287 280 280 277 276 275 275 276 279 283 288 295 300 300 295 288 285 284 281 279 278 279 280 282 281 282 281 280 280 277 274 276 278 280 280 279 277 274 275 269
267 277 281 279 277 278 277 275 275 277 280 283 288 294 294 292 290 289 285 284 284 281 279 279 279 280 279 279 279 277 277 279 278 276 269 275 276 278 279 277 276 273 271
272 278 272 276 275 277 277 279 280 283 286 291 292 291 290 287 288 287 285 284 283 282 281 281 282 281 279 279 277 277 278 276 275 276 276 270 269 273 277 275 275 273 268
280 276 280 279 280 280 281 284 288 290 290 292 292 291 288 286 286 284 283 283 282 280 280 281 281 283 283 282 281 279 276 275 275 273 271 269 270 268 264 264 264 259 255
282 280 278 280 284 285 285 285 288 291 293 293 293 291 289 289 288 285 284 282 282 281 280 280 283 284 284 285 285 283 280 279 273 272 268 263 259 261 261 260 256 250 246
274 279 286 287 283 283 287 289 291 292 293 291 289 288 288 288 286 284 284 282 281 282 285 288 288 288 287 285 284 283 283 282 280 275 267 259 250 247 248 246 241 245 245
280 282 281 284 288 292 294 294 295 296 294 287 283 283 285 285 285 285 285 285 287 289 291 294 293 292 292 290 288 287 285 284 281 276 271 259 251 240 235 233 234 238 239
272 286 293 295 298 299 298 298 297 296 291 287 283 283 284 285 286 286 287 288 290 295 298 301 302 303 297 296 297 293 289 287 287 288 274 252 238 232 229 226 225 229 225
274 284 291 298 301 299 297 299 298 295 286 281 281 284 285 286 287 286 287 290 295 299 304 309 314 316 308 311 313 314 310 306 305 294 278 260 241 233 219 220 231 236 232
278 282 287 288 293 294 299 306 299 292 283 281 283 287 287 287 285 287 288 293 305 312 309 309 316 320 324 321 319 319 314 319 307 293 271 255 240 234 224 216 215 218 222
275 277 280 279 284 291 300 301 293 287 284 285 286 286 286 283 280 280 293 307 313 313 312 313 319 323 324 325 323 325 318 308 296 281 263 247 240 244 242 235 230 225 224
275 273 273 281 286 290 297 294 284 285 282 283 283 283 274 269 266 283 297 303 310 312 317 321 321 321 327 333 332 326 319 310 297 283 274 255 230 209 200 189 184 188 222
283 286 291 300 295 295 293 288 281 280 282 280 278 266 259 255 268 283 293 301 308 312 316 318 324 327 326 323 315 308 294 283 268 244 215 184 173 313 279 250 251 251 247
282 288 290 292 289 288 287 282 277 275 276 272 261 254 247 256 272 286 297 305 310 313 315 318 319 318 318 317 306 293 274 267 262 260 262 255 246 247 242 243 244 242 240
281 284 289 290 289 280 275 276 273 272 270 259 249 242 247 263 280 294 303 310 314 316 317 318 313 309 306 304 293 287 273 265 270 272 270 263 262 264 258 254 252 251 251
285 288 293 291 277 274 276 269 267 266 253 241 235 241 253 271 284 296 302 310 316 319 320 323 321 315 307 301 295 286 278 278 270 266 261 260 264 272 264 265 265 260 266
289 285 282 281 280 272 264 262 259 247 235 231 235 246 258 269 280 291 300 307 310 315 317 319 319 313 307 300 291 282 276 280 281 266 264 265 275 277 266 263 268 266 265
278 280 282 280 269 258 256 252 243 233 232 234 239 248 258 270 280 288 296 305 312 319 323 322 323 319 312 307 300 292 287 289 282 278 280 283 285 284 276 272 272 272 275
275 277 272 261 253 251 246 239 234 232 233 236 241 247 257 272 282 290 301 309 313 318 321 324 326 325 321 316 307 301 295 287 286 283 282 283 282 280 276 279 278 279 281
263 261 253 247 246 244 240 236 233 233 234 238 244 250 258 269 279 289 298 304 308 312 316 319 321 320 318 314 308 299 295 299 293 291 292 287 283 279 280 279 279 279 283
254 249 244 243 238 236 236 236 236 238 237 237 242 251 260 268 276 285 294 298 302 304 307 310 311 311 311 309 306 304 301 300 296 290 289 288 286 284 283 285 285 287 286